This demonstration page uses our WeatherBlox Daily Observations layout. Learn more.

Left ArrowRight Arrow

39.08367, -84.50855

Hourly Observations for April 22, 2015

Temp ( °F °C ) Dew Point ( °F °C ) Humidity (%) Winds ( mph kmh ) Pressure ( in mb ) Visibility ( mi km ) Precip ( " mm )
12:53 am 00:53 Mostly Clear 54 12.2 42 5.6 64 64 SSW 18 30 29.75 1007 10 16.0934 0 0
1:53 am 01:53 Mostly Cloudy 52 11.1 44 6.7 75 75 SSW 15 24 29.72 1007 10 16.0934 0 0.0254
2:53 am 02:53 Cloudy with Rain 48 8.9 40 4.4 74 74 NNW 14 22 29.75 1008 8 12.87472 0.02 0.508
3:00 am 03:00 Cloudy with Light Rain 46 8 41 5 82 82 NNW 9 15 29.8 1009 6 9.65604 0 0
3:53 am 03:53 Cloudy 45 7.2 43 6.1 93 93 SSE 3 6 29.74 1007 10 16.0934 0.06 1.524
4:17 am 04:17 Cloudy with Light Rain 45 7.2 43 6.1 93 93 Calm 29.77 1008 10 16.0934 0 0.0254
4:49 am 04:49 Cloudy with Light Rain 45 7 45 7 100 100 Calm 29.77 1008 10 16.0934 0.01 0.254
4:53 am 04:53 Cloudy with Light Rain 45 7.2 44 6.7 97 97 Calm 29.74 1007 10 16.0934 0.01 0.254
5:53 am 05:53 Cloudy 46 7.8 41 5 83 83 NNW 7 11 29.74 1007 10 16.0934 0.01 0.254
6:53 am 06:53 Cloudy with Light Rain 44 6.7 42 5.6 93 93 NW 15 24 29.79 1009 8 12.87472 0.02 0.508
7:03 am 07:03 Cloudy with Light Rain 43 6 43 6 100 100 NNW 10 17 29.8 1009 7 11.26538 0 0
7:53 am 07:53 Cloudy with Light Rain 43 6 N/A N/A Calm 29.79 1009 5 8.0467 0.05 1.27
8:53 am 08:53 Cloudy 43 6.1 41 5 93 93 W 7 11 29.8 1009 10 16.0934 0.02 0.508
9:37 am 09:37 Cloudy 46 7.8 42 5.6 86 86 W 13 20 29.83 1010 10 16.0934 0 0.0254
9:53 am 09:53 Cloudy 46 7.8 41 5 83 83 W 16 26 29.82 1010 10 16.0934 0 0.0254
10:14 am 10:14 Cloudy 46 7.8 39 3.9 77 77 W 16 26 29.83 1010 10 16.0934 0 0
10:53 am 10:53 Mostly Cloudy 50 10 38 3.3 63 63 W 22 35 29.82 1010 10 16.0934 0 0
11:53 am 11:53 Mostly Cloudy 51 10.6 37 2.8 59 59 W 17 28 29.82 1010 10 16.0934 0 0
12:53 pm 12:53 Partly Cloudy 53 11.7 34 1.1 48 48 W 22 35 29.82 1010 10 16.0934 0 0
1:53 pm 13:53 Partly Cloudy 54 12.2 36 2.2 51 51 W 15 24 29.83 1010 10 16.0934 0 0
2:53 pm 14:53 Partly Cloudy 54 12.2 33 0.6 45 45 WNW 15 24 29.84 1010 10 16.0934 0 0
3:53 pm 15:53 Mostly Cloudy 54 12.2 32 0 43 43 W 14 22 29.84 1010 10 16.0934 0 0
4:53 pm 16:53 Mostly Sunny 54 12.2 32 0 43 43 NW 12 19 29.85 1011 10 16.0934 0 0
5:53 pm 17:53 Mostly Sunny 52 11.1 31 -0.6 45 45 WNW 16 26 29.88 1012 10 16.0934 0 0
6:53 pm 18:53 Mostly Sunny 50 10 29 -1.7 44 44 NW 14 22 29.91 1013 10 16.0934 0 0
7:53 pm 19:53 Sunny 47 8.3 27 -2.8 46 46 NW 9 15 29.92 1013 10 16.0934 0 0
8:53 pm 20:53 Mostly Cloudy 47 8.3 26 -3.3 44 44 NW 7 11 29.93 1014 10 16.0934 0 0
9:53 pm 21:53 Mostly Cloudy 44 6.7 28 -2.2 53 53 WSW 5 7 29.93 1014 10 16.0934 0 0
10:53 pm 22:53 Mostly Clear 41 5 29 -1.7 62 62 SSW 7 11 29.93 1014 10 16.0934 0 0
11:53 pm 23:53 Clear 41 5 33 0.6 73 73 SSW 3 6 29.93 1014 10 16.0934 0 0

Powered by AerisWeather